[[{"header":{"parameterUnit":"m.s-1","parameterCategory":1,"la1":30.2991,"la2":30.254,"lo1":-89.0895,"lo2":-89.0444,"dy":0.0017,"dx":0.0017,"nx":28,"ny":28,"refTime":"2025-07-20T03:00:00:Z","depth":0,"parameterNumber":2,"parameterNumberName":"U-component_of_WINDS"},"data":[0,0,0,0,0,0,0,0,0,0,0,0,0,0,0,0,0,0,0,0,0,0,0,0,0,0,0,0,0,0,0,0,0,0,0,0,0,0,0,0,0,0,0,0,0,0,0,0,0,0,0,0,0,0,0,0,0,0,0.5806,0.5806,0,0.5855,0.5856,0.5856,0.5829,0.5828,0.5826,0.5825,0.5882,0.5884,0.5887,0,0,0,0,0,0,0,0,0,0,0,0,0,0.5691,0.5693,0.5806,0.5806,0.5807,0.5855,0.5856,0.5856,0.5829,0.5828,0.5826,0.5825,0.5881,0.5884,0.5887,0,0,0,0,0,0,0,0,0,0,0,0,0,0.5741,0.5694,0.5805,0.5799,0.5799,0.5855,0.5856,0.5857,0.583,0.5828,0.5826,0.5824,0.588,0.5884,0.5888,0.5955,0,0,0.59,0.5902,0,0,0,0,0,0,0,0,0.5738,0.5745,0.5799,0.58,0.58,0.5834,0.5836,0.589,0.583,0.5818,0.5825,0.5823,0.5868,0.5873,0.5887,0.5957,0.596,0.5901,0.5903,0.5905,0.5906,0,0,0,0,0,0,0,0.5735,0.5743,0.5825,0.58,0.58,0.5795,0.58,0.5846,0.5854,0.5819,0.5817,0.5823,0.5867,0.5883,0.5888,0.5961,0.5901,0.5904,0.5907,0.5909,0.6086,0.6088,0,0,0,0,0,0,0.5731,0.574,0.5824,0.5827,0.5763,0.5798,0.5804,0.5825,0.5853,0.5856,0.5825,0.5822,0.5877,0.5883,0.589,0.5968,0.5905,0.5909,0.5911,0.6084,0.6087,0.6089,0,0,0,0,0,0,0.5729,0.5739,0.5822,0.5783,0.5793,0.5803,0.5827,0.5827,0.5842,0.5858,0.5859,0.5839,0.5875,0.5884,0.5938,0.597,0.5911,0.5915,0.6081,0.6085,0.6088,0.6127,0,0,0,0,0,0,0.5726,0.5738,0.5763,0.5784,0.5795,0.5868,0.5829,0.5829,0.5849,0.5845,0.5871,0.5874,0.5874,0.5932,0.5942,0.5975,0.5918,0.6079,0.6083,0.6087,0.6123,0.6132,0.6139,0,0,0,0,0,0.5722,0.5774,0.5764,0.5775,0.5826,0.587,0.5877,0.5875,0.5852,0.5877,0.5886,0.5873,0.5965,0.5937,0.5949,0.5983,0.6077,0.6082,0.6087,0.612,0.613,0.6139,0,0,0,0,0,0,0.576,0.5777,0.5766,0.5827,0.5847,0.5865,0.5897,0.5886,0.5915,0.591,0.5908,0.5914,0.597,0.5982,0.5951,0.6048,0.6017,0.6025,0.6039,0.6048,0.6056,0.6052,0.5921,0,0,0,0,0,0.5774,0.5807,0.5821,0.5873,0.5883,0.5888,0.5908,0.5904,0.5925,0.5934,0.5948,0.5971,0.6004,0.6027,0.6059,0.6124,0.6129,0.6154,0.6161,0.6168,0.6175,0.6208,0.6219,0.6105,0.6105,0.6105,0,0,0.5807,0.582,0.5841,0.5881,0.5896,0.593,0.5896,0.5935,0.5961,0.5941,0.5992,0.6002,0.6028,0.6087,0.6114,0.6099,0.6207,0.6174,0.6179,0.6182,0.6215,0.6225,0.6235,0.6109,0.6108,0.6108,0,0,0.5883,0.5896,0.594,0.5955,0.5977,0.598,0.599,0.601,0.6015,0.6066,0.6051,0.6082,0.6141,0.6159,0.6176,0.6255,0.6243,0.6266,0.6307,0.634,0.6349,0.6357,0.6384,0.6394,0.6272,0.6272,0.6273,0,0.592,0.597,0.5964,0.6003,0.602,0.6001,0.6045,0.6061,0.6094,0.6107,0.6089,0.616,0.6176,0.6238,0.6257,0.6272,0.6284,0.6263,0.6348,0.6355,0.6363,0.6389,0.64,0.6275,0.6275,0.6274,0.6274,0,0.6015,0.605,0.6083,0.6111,0.6133,0.6174,0.6175,0.6197,0.6191,0.6196,0.6247,0.6265,0.6299,0.6313,0.6309,0.6375,0.6364,0.6347,0.6316,0.6376,0.6401,0.6411,0.6279,0.6278,0.6277,0.6276,0,0,0.6119,0.6141,0.6153,0.6165,0.6186,0.6214,0.6254,0.6285,0.6304,0.6327,0.6361,0.6409,0.6392,0.6411,0.6408,0.6437,0.6498,0.6416,0.6417,0.643,0.657,0.6583,0.6594,0.6489,0.6491,0.6493,0.6568,0,0.6195,0.6263,0.6258,0.6323,0.6355,0.6335,0.637,0.6388,0.6393,0.6421,0.6428,0.6461,0.6437,0.6448,0.6476,0.6484,0.6526,0.6479,0.6522,0.6523,0.6516,0.6607,0.6622,0.6691,0.6577,0.6579,0.658,0,0.6295,0.6317,0.6385,0.6399,0.6412,0.6444,0.647,0.6498,0.6517,0.6518,0.6538,0.653,0.6571,0.6537,0.6594,0.6562,0.6579,0.6586,0.6588,0.6593,0.6556,0.6614,0.6714,0.6724,0.6595,0.6594,0.6593,0,0.6362,0.641,0.6456,0.6466,0.6485,0.6507,0.6516,0.6533,0.6551,0.6575,0.6587,0.6617,0.6633,0.6656,0.6656,0.6632,0.6713,0.668,0.6716,0.6716,0.6734,0.6733,0.6838,0.6745,0.6745,0.6745,0.6745,0,0.6448,0.649,0.6486,0.6514,0.656,0.6553,0.6599,0.6606,0.6621,0.6651,0.6637,0.6665,0.6663,0.6692,0.6693,0.6739,0.6747,0.6749,0.6749,0.6751,0.675,0.6762,0.6757,0.6748,0.6747,0.6747,0.6746,0,0.6532,0.6531,0.6579,0.6591,0.6595,0.6629,0.664,0.6667,0.6669,0.6707,0.6716,0.672,0.6754,0.6755,0.6795,0.6794,0.685,0.6845,0.6843,0.6842,0.6877,0.6874,0.6994,0.7009,0.6906,0.6907,0.6908,0,0.6588,0.6619,0.6633,0.6651,0.666,0.669,0.6707,0.6701,0.672,0.6743,0.6767,0.6798,0.6823,0.6877,0.6885,0.6914,0.6909,0.6949,0.6914,0.6913,0.6909,0.6907,0.691,0.6956,0.6957,0.6958,0.6959,0,0.6686,0.6682,0.6707,0.6731,0.6752,0.6771,0.6789,0.6805,0.6801,0.6823,0.6855,0.6874,0.6912,0.6943,0.6971,0.6981,0.697,0.6969,0.6979,0.6981,0.6979,0.698,0.6862,0.6967,0.6966,0.6965,0.6965,0.6965,0.6757,0.6783,0.6796,0.6823,0.6835,0.6852,0.6877,0.6881,0.6907,0.6936,0.6931,0.6967,0.6983,0.7019,0.7032,0.706,0.7047,0.7061,0.7065,0.7068,0.7072,0.6973,0.7065,0.7065,0.7065,0.7065,0.7065,0,0.6853,0.686,0.6885,0.6909,0.693,0.6914,0.6932,0.6952,0.6983,0.6998,0.7022,0.7058,0.7087,0.7096,0.7125,0.7146,0.7141,0.7154,0.7152,0.7154,0.7083,0.7071,0.7157,0.7157,0.7157,0.7157,0.7157,0.7157,0.6906,0.6948,0.6947,0.6995,0.7001,0.7034,0.7046,0.7061,0.7073,0.7113,0.7136,0.7141,0.7154,0.7182,0.7209,0.7211,0.7222,0.7236,0.7236,0.7169,0.716,0.7151,0.714,0.7239,0.7239,0.7306,0.7306,0.7307]},{"header":{"parameterUnit":"m.s-1","parameterCategory":1,"la1":30.2991,"la2":30.254,"lo1":-89.0895,"lo2":-89.0444,"dy":0.0017,"dx":0.0017,"nx":28,"ny":28,"refTime":"2025-07-20T03:00:00:Z","depth":0,"parameterNumber":3,"parameterNumberName":"V-component_of_WINDS"},"data":[0,0,0,0,0,0,0,0,0,0,0,0,0,0,0,0,0,0,0,0,0,0,0,0,0,0,0,0,0,0,0,0,0,0,0,0,0,0,0,0,0,0,0,0,0,0,0,0,0,0,0,0,0,0,0,0,0,0,2.9051,2.9052,0,2.9112,2.9112,2.9113,2.9094,2.9092,2.9091,2.909,2.9149,2.9151,2.9154,0,0,0,0,0,0,0,0,0,0,0,0,0,2.8914,2.8916,2.9051,2.9052,2.9052,2.9112,2.9112,2.9113,2.9094,2.9092,2.9091,2.9089,2.9148,2.9151,2.9154,0,0,0,0,0,0,0,0,0,0,0,0,0,2.8974,2.8917,2.9051,2.905,2.905,2.9111,2.9112,2.9113,2.9094,2.9092,2.909,2.9088,2.9147,2.9151,2.9155,2.9219,0,0,2.9167,2.9169,0,0,0,0,0,0,0,0,2.897,2.8979,2.9049,2.905,2.9051,2.9093,2.9086,2.9149,2.9095,2.9077,2.909,2.9087,2.9131,2.9137,2.9152,2.9222,2.9224,2.9168,2.917,2.9172,2.9173,0,0,0,0,0,0,0,2.8966,2.8976,2.9075,2.905,2.9051,2.9045,2.9052,2.9098,2.9114,2.9079,2.9077,2.9085,2.9131,2.9148,2.9153,2.9225,2.9168,2.9171,2.9174,2.9176,2.9349,2.9351,0,0,0,0,0,0,2.8962,2.8973,2.9073,2.9077,2.9005,2.9049,2.9056,2.9081,2.9114,2.9117,2.9087,2.9084,2.9142,2.9149,2.9155,2.9232,2.9172,2.9176,2.9178,2.9347,2.9349,2.9352,0,0,0,0,0,0,2.8959,2.8971,2.907,2.9024,2.9037,2.9054,2.9082,2.9084,2.9101,2.912,2.9122,2.9101,2.9141,2.915,2.9203,2.9234,2.9178,2.9182,2.9344,2.9348,2.9351,2.9386,0,0,0,0,0,0,2.8956,2.897,2.8996,2.9025,2.9039,2.9119,2.9084,2.9086,2.9108,2.9105,2.9134,2.9137,2.914,2.9197,2.9207,2.9238,2.9185,2.9342,2.9346,2.935,2.9382,2.939,2.9397,0,0,0,0,0,2.8951,2.9003,2.8998,2.901,2.9072,2.912,2.9128,2.9132,2.9111,2.9136,2.9148,2.9136,2.9229,2.9203,2.9214,2.9247,2.934,2.9345,2.9349,2.9379,2.9388,2.9396,0,0,0,0,0,0,2.8976,2.9007,2.9001,2.9065,2.909,2.9117,2.9149,2.9142,2.9173,2.9169,2.917,2.9177,2.9232,2.9245,2.9215,2.931,2.9281,2.9288,2.93,2.9309,2.9316,2.9311,2.9188,0,0,0,0,0,2.899,2.9028,2.9052,2.9106,2.9119,2.9132,2.9153,2.9154,2.918,2.919,2.9206,2.9231,2.9265,2.9288,2.9321,2.9384,2.9389,2.9412,2.9419,2.9425,2.9431,2.9464,2.9474,2.9367,2.9367,2.9367,0,0,2.9017,2.9039,2.9062,2.9112,2.9131,2.9169,2.9141,2.9183,2.921,2.9196,2.9247,2.926,2.9288,2.9346,2.9373,2.9359,2.9462,2.9431,2.9436,2.9438,2.947,2.948,2.9489,2.9371,2.937,2.937,0,0,2.9086,2.9107,2.9154,2.9174,2.9205,2.9213,2.9224,2.9252,2.926,2.9312,2.9301,2.9334,2.9394,2.9413,2.9431,2.9507,2.9496,2.9518,2.9555,2.9587,2.9595,2.9603,2.9628,2.9638,2.9524,2.9524,2.9524,0,2.9116,2.9174,2.9178,2.9221,2.9242,2.9231,2.9277,2.9297,2.9336,2.935,2.9334,2.9409,2.9426,2.9488,2.9507,2.9522,2.9534,2.9514,2.9594,2.9602,2.9608,2.9633,2.9643,2.9526,2.9526,2.9525,2.9525,0,2.9208,2.9249,2.9282,2.9321,2.9347,2.9391,2.94,2.9425,2.9423,2.9432,2.9484,2.9505,2.9542,2.9557,2.9555,2.9618,2.9609,2.9594,2.9564,2.9621,2.9644,2.9653,2.9529,2.9528,2.9528,2.9527,0,0,2.9295,2.9336,2.9348,2.9365,2.9397,2.9428,2.9471,2.9508,2.9528,2.9555,2.959,2.9641,2.9627,2.9647,2.9647,2.9676,2.9733,2.9657,2.9657,2.9669,2.9802,2.9812,2.9823,2.9726,2.9728,2.973,2.9799,0,2.9366,2.9442,2.9447,2.9516,2.9552,2.9542,2.9579,2.9603,2.9612,2.9644,2.9654,2.9689,2.9669,2.9681,2.9709,2.972,2.9759,2.9715,2.9757,2.9759,2.9749,2.9835,2.9846,2.9911,2.9808,2.981,2.9811,0,2.9459,2.9489,2.9562,2.9589,2.9604,2.9637,2.9671,2.9701,2.9727,2.9732,2.9754,2.975,2.9793,2.9763,2.982,2.979,2.9807,2.9816,2.9818,2.9821,2.9787,2.9839,2.9931,2.9941,2.9825,2.9824,2.9823,0,2.9512,2.9572,2.9623,2.9638,2.9671,2.9694,2.9709,2.9732,2.9754,2.9782,2.9796,2.9829,2.9847,2.9872,2.9876,2.9854,2.9933,2.9904,2.9937,2.9937,2.9953,2.9952,3.0048,2.9967,2.9967,2.9967,2.9966,0,2.959,2.9635,2.9648,2.9679,2.9728,2.9732,2.978,2.9792,2.9814,2.9846,2.984,2.987,2.9875,2.9906,2.9909,2.9955,2.9964,2.9968,2.9968,2.9968,2.9967,2.9978,2.9973,2.9969,2.9969,2.9968,2.9968,0,2.9658,2.9669,2.9724,2.975,2.9758,2.9793,2.9815,2.9844,2.9853,2.9893,2.9903,2.9917,2.9953,2.996,3.0003,3.0005,3.006,3.0056,3.0051,3.005,3.0083,3.0079,3.0189,3.0202,3.0113,3.0114,3.0115,0,2.9707,2.9741,2.9771,2.9793,2.9808,2.9843,2.9865,2.987,2.9893,2.9924,2.9949,2.9985,3.0013,3.0071,3.0084,3.0116,3.0112,3.0148,3.0117,3.0115,3.0111,3.0108,3.0111,3.0154,3.0155,3.0156,3.0156,0,2.9791,2.9794,2.9827,2.9861,2.9887,2.9914,2.9939,2.9957,2.9965,2.9991,3.0028,3.005,3.0094,3.0128,3.016,3.0174,3.0166,3.0166,3.0175,3.0175,3.017,3.0171,3.0066,3.0163,3.0163,3.0162,3.0162,3.0162,2.9849,2.9879,2.9904,2.994,2.996,2.9984,3.0012,3.0025,3.0056,3.0093,3.0094,3.0134,3.0157,3.0199,3.0215,3.0245,3.0234,3.0247,3.025,3.0253,3.0255,3.0166,3.0251,3.0251,3.0251,3.0251,3.025,0,2.9932,2.9948,2.9981,3.0017,3.0044,3.0036,3.0064,3.0087,3.0123,3.0146,3.0174,3.0216,3.025,3.0265,3.0298,3.0319,3.0316,3.0328,3.0325,3.0328,3.0265,3.0253,3.0329,3.0329,3.0329,3.0329,3.0329,3.0329,2.9978,3.0026,3.0033,3.009,3.0106,3.0146,3.0162,3.0183,3.0202,3.0249,3.0277,3.0288,3.0307,3.0341,3.0371,3.0375,3.0386,3.0399,3.0401,3.0341,3.0333,3.0325,3.0314,3.0402,3.0402,3.0461,3.0462,3.0462]}]]